{"data":{"norad_id":66707,"intl_designator":"2025-276AT","name":"FLOCK 4H-4","alt_names":[],"object_type":"PAYLOAD","status":"ACTIVE","operator":null,"country":"US","launch_date":"2025-11-28","launch_site_code":"AFWTR","launch_vehicle":null,"mission":null,"orbit_class":"UNKNOWN","rcs_meters":null,"size_class":null,"mass_kg":null,"dimensions":null,"purposes":["earth_obs"],"wikipedia_slug":null,"has_3d_model":false,"image_url":null,"decayed_at":null,"tle_current":{"epoch":"2026-09-19T10:05:52.909728Z","epoch_age_seconds":111604,"freshness":"FRESH","line1":"1 66707U 25276AT  26262.42075127  .00004967  00000+0  22855-3 0  9994","line2":"2 66707  97.4147 334.4425 0005458  48.9863 311.1844 15.20766789 44736","mean_motion":15.20766789,"eccentricity":0.0005458,"inclination_deg":97.4147,"raan_deg":334.4425,"arg_perigee_deg":48.9863,"mean_anomaly_deg":311.1844,"bstar":0.00022855,"rev_number":4473,"period_min":94.689074644173,"perigee_km":499.77041751821,"apogee_km":507.28244131777,"semimajor_km":6881.663429418,"source":"CELESTRAK","updated_at":"2026-09-20T09:00:34.748309Z"}}}